Wind_Speed
18 16 15 16 17 17 17 18 22 24 25 26 25 25 26 25 24 26 25 24 26 27 27 28 28 34 47 52 50 47 50 50 44 46 54 48 62 58 48 47 45 43 44 39 43
16 14 12 12 13 15 16 16 16 19 21 23 25 25 25 25 25 23 24 25 26 27 28 28 29 30 35 48 57 54 52 51 45 45 47 52 54 66 51 46 46 44 42 41 38
15 13 12 10 9 10 13 14 14 15 17 19 22 25 25 25 25 24 23 24 25 26 29 29 31 32 34 39 47 56 55 51 50 46 42 47 44 64 59 48 46 46 40 44 44
17 12 12 10 8 8 9 10 11 13 15 16 18 22 25 26 26 24 24 24 24 25 27 29 30 32 34 38 40 45 54 57 51 47 40 43 43 62 65 48 47 45 46 44 46
21 12 10 10 9 7 8 10 11 12 13 14 16 19 22 25 27 27 26 26 26 26 26 27 28 30 32 35 36 40 46 52 54 51 45 42 34 51 74 53 50 49 48 48 49
28 17 9 9 10 9 8 8 10 12 13 14 15 17 19 22 24 28 29 29 29 28 27 27 27 28 30 33 33 35 39 45 50 50 47 46 41 43 63 60 51 56 50 51 55
30 24 14 9 10 13 11 10 10 10 10 12 14 14 18 19 22 25 26 29 31 30 29 29 27 28 28 30 31 31 33 37 42 46 47 46 41 42 44 69 54 64 57 56 54
35 28 21 12 11 15 14 14 13 12 13 12 11 12 13 15 18 21 26 28 29 30 33 32 31 30 30 30 31 31 31 33 35 36 37 41 41 42 46 46 53 62 69 58 58
38 34 28 20 19 14 15 13 15 13 14 13 13 12 12 15 17 19 22 25 30 32 33 34 34 34 33 34 33 33 33 32 35 34 32 34 37 39 44 43 43 57 67 69 58
37 36 32 28 24 22 16 10 13 14 15 16 15 14 14 15 16 17 19 22 23 26 32 33 34 36 38 36 37 37 36 35 35 36 34 34 35 35 39 40 42 42 47 65 70
35 35 35 29 27 25 22 16 10 13 17 18 19 18 17 18 19 19 20 21 22 23 24 26 29 33 36 37 39 41 40 39 38 40 39 38 38 36 37 39 40 43 41 45 75
33 33 33 32 29 26 22 19 16 14 16 18 18 19 20 20 22 22 24 24 23 23 23 23 25 28 30 33 35 37 39 40 41 42 43 41 40 41 40 41 42 43 45 46 48
32 31 30 29 29 26 25 23 21 19 17 15 15 16 19 20 22 24 24 25 25 25 24 24 24 27 28 28 30 32 34 36 38 39 40 41 41 39 40 43 45 47 47 48 50
31 30 28 28 26 26 25 24 24 23 20 16 20 21 22 22 22 23 26 25 24 24 25 24 25 25 26 27 29 30 32 34 35 36 37 39 40 36 38 41 44 45 47 49 52
29 29 28 27 26 24 24 24 23 22 22 23 23 24 24 23 22 25 24 26 26 29 27 26 26 24 26 28 29 30 31 32 32 33 33 32 38 37 35 38 40 43 45 48 50
28 28 27 26 25 24 23 23 24 24 24 23 23 23 25 23 23 24 22 22 21 23 25 26 26 24 25 27 29 30 31 31 31 32 33 32 35 35 34 39 40 42 45 46 48
28 27 26 26 25 24 24 23 23 24 25 26 26 25 23 22 23 24 24 25 27 25 25 24 26 23 24 27 28 29 30 31 31 30 32 34 36 34 38 41 46 50 50 53 54
27 27 27 26 26 26 24 23 23 24 25 26 26 27 25 24 24 24 25 25 25 27 29 27 26 26 26 26 27 27 28 28 31 30 30 32 37 33 36 35 37 50 56 57 60
25 26 26 26 27 26 26 25 25 25 26 26 27 27 26 25 25 24 24 26 27 27 28 29 27 24 23 27 27 27 26 26 27 26 28 29 30 28 27 33 46 50 55 62 65
24 26 26 27 27 28 28 28 28 27 28 28 28 28 28 28 26 25 25 25 25 26 27 28 27 26 24 25 24 27 25 22 22 26 25 23 22 19 26 36 43 50 56 60 64
25 26 27 27 30 30 30 30 30 30 30 31 30 31 30 30 27 26 25 26 24 22 21 23 25 24 23 22 26 30 24 22 24 24 26 27 21 26 31 31 39 46 50 49 52
26 25 26 28 30 32 31 31 31 31 33 34 33 34 33 32 31 27 24 26 24 24 22 20 20 17 17 23 25 26 25 23 23 24 28 30 23 31 36 35 36 43 47 51 46
26 26 26 28 30 32 32 33 32 32 34 37 38 38 37 34 33 30 24 25 26 24 23 21 22 19 18 22 24 24 24 23 24 25 22 28 27 35 36 36 39 38 41 43 40
26 27 26 28 31 33 33 32 35 36 39 41 42 42 38 34 33 31 25 24 22 24 24 22 20 16 18 21 23 20 20 21 25 27 25 28 26 29 32 33 34 34 40 35 42
27 27 29 30 31 35 37 38 38 39 42 46 48 44 37 32 30 28 24 22 22 21 19 21 14 16 16 19 21 20 16 23 28 27 30 27 34 34 41 42 39 44 44 41 41
31 28 29 30 32 34 37 38 41 43 46 48 50 45 36 28 25 21 20 20 18 21 19 18 14 15 12 19 20 16 17 24 27 26 31 32 34 39 44 39 47 50 48 44 45
29 28 29 30 32 34 36 39 43 46 49 53 52 42 30 24 22 16 16 20 16 16 18 16 15 16 12 18 20 17 19 23 27 30 32 35 36 41 38 46 55 52 45 44 42
Wind_Direction
300 298 295 287 276 270 266 260 253 251 252 253 254 254 255 256 257 253 254 256 254 249 252 252 251 244 233 232 236 240 244 245 244 240 238 227 206 217 214 217 219 218 217 219 218
303 303 301 294 287 276 268 264 262 258 253 251 251 252 253 255 256 257 255 254 253 250 247 246 246 249 246 238 235 237 243 244 246 246 246 236 224 212 213 212 217 216 217 217 212
307 295 303 301 292 287 278 271 268 266 263 259 254 253 252 253 256 258 260 255 253 250 249 246 243 244 244 242 243 239 240 245 247 247 255 238 227 206 215 205 211 213 212 214 217
327 305 288 297 290 283 284 281 273 269 268 266 261 257 253 252 254 255 256 257 253 252 250 250 248 246 244 242 243 245 242 243 245 248 252 242 247 217 211 201 202 212 210 208 214
354 321 303 283 292 283 274 276 277 275 277 273 270 265 259 255 253 253 252 254 254 250 250 250 249 249 247 244 243 245 243 242 243 247 248 252 256 217 211 205 203 205 206 209 206
12 360 331 311 283 287 279 280 282 278 278 282 280 272 264 257 255 253 252 251 252 251 249 249 247 248 249 245 241 244 246 242 240 241 244 245 248 235 221 209 206 206 207 206 213
16 12 5 354 335 287 281 278 284 286 291 285 280 278 269 261 253 253 253 252 251 251 251 250 249 247 248 251 248 245 244 245 244 240 239 241 243 248 233 221 208 208 212 211 212
19 19 19 18 357 343 300 274 276 279 281 282 286 284 281 273 263 256 252 251 252 253 251 250 249 249 250 248 249 248 246 247 249 244 243 241 236 238 243 244 228 216 213 214 215
24 20 22 14 4 336 327 286 270 273 273 276 280 285 286 280 273 265 259 254 249 249 250 250 250 249 249 250 249 248 247 245 247 247 246 243 240 235 240 243 249 230 221 217 213
16 23 21 18 14 11 360 324 272 286 283 281 282 285 285 283 279 277 270 264 261 255 253 252 250 249 249 248 251 251 250 247 247 247 246 243 242 238 239 241 241 248 239 222 220
12 13 19 22 20 19 15 10 323 301 301 293 289 287 283 283 284 284 278 271 268 262 255 253 254 251 249 248 248 250 251 252 250 251 249 246 244 240 242 241 240 237 241 248 221
9 10 11 14 15 17 17 16 5 339 321 306 302 296 286 284 283 280 277 276 271 265 260 253 253 253 253 252 250 251 253 254 254 254 255 252 250 249 245 244 243 241 238 239 244
4 6 7 7 10 8 8 10 2 350 342 339 330 317 303 296 288 282 279 275 270 267 262 258 254 254 254 254 254 252 252 251 252 251 254 254 251 251 253 252 248 245 243 239 239
358 1 2 3 2 2 1 357 355 353 349 337 333 327 323 309 295 290 280 263 262 261 260 261 259 258 258 256 254 254 253 253 254 253 253 255 253 248 250 250 251 248 243 242 240
358 355 357 358 356 354 353 352 349 347 347 342 337 330 331 322 308 294 289 282 272 262 257 261 259 257 256 255 255 255 255 255 256 256 253 253 253 249 248 252 252 252 251 246 241
355 354 352 352 352 349 344 344 345 346 344 341 338 335 332 326 312 302 284 280 284 285 272 259 256 257 252 253 253 254 254 254 253 255 257 256 256 253 258 257 255 254 252 249 248
349 352 348 347 348 343 341 338 341 342 338 335 333 334 331 324 311 301 290 280 274 273 276 264 251 248 250 251 251 251 253 255 258 258 261 262 261 264 270 270 264 257 256 254 250
342 346 347 345 342 341 338 335 334 333 332 333 329 327 327 324 317 308 299 288 278 278 277 271 253 240 236 251 253 249 250 254 260 263 265 267 268 270 277 280 279 272 265 262 258
340 341 343 342 340 339 337 333 332 328 327 328 326 324 321 319 317 312 305 296 287 276 270 268 263 254 246 248 252 249 253 259 267 269 272 274 276 281 275 280 273 272 273 271 266
337 338 341 341 340 338 336 332 328 327 324 324 322 322 318 315 313 311 307 302 291 285 281 272 271 266 265 252 245 248 249 256 262 273 280 282 285 278 286 284 278 281 278 274 272
331 333 336 338 338 339 335 332 327 324 323 323 321 319 315 312 308 305 305 299 299 291 285 276 266 262 258 252 241 246 255 255 265 270 283 291 282 291 295 294 292 294 294 282 272
328 332 333 334 336 338 335 332 329 325 323 322 321 318 315 311 306 301 297 294 292 288 287 279 275 271 258 233 237 247 253 259 267 277 286 292 288 298 301 293 290 286 290 284 269
322 331 332 333 335 338 337 335 332 329 326 322 322 319 315 310 303 299 292 284 287 289 291 277 275 269 223 229 242 245 252 265 273 278 289 289 307 301 297 289 283 287 283 284 264
317 323 329 330 334 339 339 336 334 333 329 325 323 319 315 309 301 297 293 285 278 282 285 281 279 252 219 239 245 247 254 260 269 274 280 290 301 317 304 286 281 287 284 279 251
318 318 325 329 334 339 342 340 336 333 330 327 324 320 315 305 297 298 291 282 283 286 281 281 270 242 235 246 253 250 257 270 274 284 283 294 298 309 299 297 298 296 281 272 260
322 316 320 328 331 338 341 337 333 334 333 329 326 323 318 306 299 292 280 282 280 284 284 282 264 238 235 253 257 266 262 264 273 279 289 295 301 303 300 306 314 300 286 265 260
322 314 315 323 329 336 337 334 335 336 335 334 332 330 321 306 300 290 284 290 293 286 279 275 266 242 235 253 264 269 275 277 279 283 289 294 296 301 295 297 305 311 287 268 255
Height
5739 5738 5737 5737 5737 5738 5739 5740 5741 5743 5745 5746 5748 5749 5751 5752 5754 5755 5756 5757 5757 5759 5760 5762 5764 5767 5769 5773 5776 5781 5781 5784 5794 5796 5799 5807 5810 5815 5820 5826 5829 5833 5839 5844 5849
5735 5734 5732 5732 5733 5733 5734 5735 5736 5737 5739 5741 5742 5744 5745 5747 5748 5749 5750 5750 5751 5753 5755 5756 5757 5760 5762 5765 5767 5771 5774 5779 5786 5788 5791 5798 5802 5804 5811 5817 5823 5827 5834 5839 5844
5730 5730 5729 5729 5729 5730 5730 5731 5731 5733 5734 5735 5736 5738 5739 5741 5742 5744 5745 5745 5746 5747 5748 5750 5752 5753 5754 5757 5759 5763 5767 5773 5776 5780 5783 5787 5789 5794 5803 5807 5814 5819 5827 5832 5835
5726 5726 5726 5726 5726 5727 5727 5728 5728 5729 5729 5730 5731 5732 5733 5735 5738 5738 5739 5739 5740 5741 5742 5743 5745 5746 5747 5749 5751 5755 5760 5763 5769 5773 5775 5778 5782 5790 5793 5798 5802 5809 5816 5823 5827
5724 5723 5723 5723 5724 5724 5724 5725 5725 5725 5726 5726 5726 5727 5728 5729 5730 5731 5732 5733 5734 5736 5737 5737 5738 5740 5741 5742 5744 5747 5751 5755 5760 5764 5767 5771 5775 5778 5779 5785 5788 5796 5803 5811 5816
5724 5721 5721 5721 5722 5722 5722 5722 5722 5722 5722 5722 5722 5723 5723 5724 5724 5724 5725 5727 5728 5729 5730 5731 5733 5734 5735 5736 5737 5740 5742 5746 5750 5755 5757 5764 5769 5764 5771 5772 5780 5786 5791 5798 5804
5726 5722 5720 5720 5721 5721 5720 5720 5719 5720 5720 5719 5719 5718 5718 5719 5719 5718 5719 5720 5721 5722 5723 5725 5726 5728 5729 5730 5732 5734 5737 5738 5742 5744 5750 5755 5761 5760 5759 5766 5773 5778 5781 5788 5793
5729 5724 5721 5720 5720 5720 5718 5718 5717 5717 5717 5716 5716 5715 5714 5714 5713 5713 5713 5714 5714 5715 5716 5718 5719 5721 5723 5725 5726 5728 5730 5731 5732 5737 5741 5746 5753 5752 5752 5757 5765 5769 5772 5777 5784
5732 5727 5724 5721 5719 5717 5715 5714 5715 5715 5714 5714 5714 5713 5712 5710 5710 5709 5708 5708 5708 5708 5708 5710 5713 5714 5716 5718 5719 5721 5723 5725 5727 5729 5732 5736 5742 5747 5747 5751 5754 5760 5763 5769 5774
5735 5730 5726 5722 5718 5715 5712 5711 5712 5713 5713 5712 5711 5711 5709 5708 5706 5705 5704 5702 5702 5702 5703 5705 5706 5707 5708 5711 5712 5713 5715 5718 5720 5724 5728 5731 5734 5739 5741 5744 5747 5749 5753 5759 5767
5736 5732 5727 5723 5720 5716 5713 5711 5712 5712 5710 5709 5708 5707 5705 5703 5702 5701 5699 5698 5697 5697 5697 5698 5699 5699 5700 5702 5704 5705 5707 5709 5711 5714 5719 5723 5725 5731 5733 5735 5737 5741 5744 5746 5754
5737 5732 5728 5724 5720 5717 5714 5712 5710 5709 5706 5704 5703 5702 5700 5699 5697 5696 5694 5694 5693 5692 5692 5693 5692 5692 5693 5695 5697 5699 5700 5702 5704 5706 5709 5714 5717 5720 5724 5725 5727 5730 5735 5738 5740
5737 5733 5728 5723 5720 5717 5714 5711 5709 5706 5704 5702 5699 5697 5695 5694 5691 5689 5688 5687 5686 5686 5685 5686 5686 5686 5687 5688 5689 5691 5691 5693 5696 5698 5700 5703 5706 5711 5713 5714 5716 5720 5724 5729 5732
5737 5733 5728 5724 5720 5716 5713 5709 5706 5703 5701 5700 5696 5693 5690 5687 5685 5683 5680 5681 5680 5679 5679 5679 5679 5680 5681 5681 5682 5683 5684 5685 5688 5690 5693 5694 5696 5703 5704 5704 5704 5707 5713 5717 5721
5736 5732 5727 5722 5719 5715 5712 5707 5704 5701 5699 5696 5691 5687 5683 5681 5678 5675 5674 5672 5671 5672 5673 5672 5672 5673 5673 5674 5674 5675 5675 5677 5679 5681 5684 5687 5688 5692 5694 5691 5694 5695 5698 5704 5708
5735 5730 5725 5721 5717 5713 5709 5705 5701 5699 5693 5691 5688 5684 5679 5675 5671 5669 5668 5666 5665 5663 5664 5664 5664 5666 5666 5666 5667 5667 5668 5670 5671 5673 5675 5677 5679 5684 5684 5682 5682 5683 5684 5686 5688
5733 5727 5722 5718 5715 5710 5706 5703 5700 5695 5692 5688 5682 5679 5675 5670 5666 5663 5661 5659 5658 5657 5657 5657 5656 5657 5658 5658 5658 5659 5660 5661 5663 5665 5667 5668 5671 5676 5669 5668 5666 5668 5669 5667 5668
5730 5725 5720 5715 5711 5707 5703 5700 5696 5692 5687 5683 5678 5674 5670 5666 5661 5656 5653 5652 5651 5650 5648 5648 5650 5648 5650 5650 5650 5651 5653 5654 5653 5656 5657 5658 5662 5662 5660 5652 5647 5647 5650 5652 5656
5727 5722 5717 5712 5708 5703 5700 5695 5692 5687 5684 5679 5673 5669 5665 5660 5655 5650 5646 5643 5641 5642 5642 5640 5640 5641 5642 5641 5643 5644 5645 5646 5645 5645 5645 5649 5652 5653 5647 5640 5636 5634 5633 5633 5642
5723 5718 5714 5708 5703 5700 5695 5691 5686 5682 5677 5673 5668 5663 5658 5653 5648 5643 5639 5636 5633 5631 5631 5631 5631 5632 5633 5633 5635 5635 5638 5639 5638 5637 5637 5639 5639 5638 5635 5628 5626 5622 5620 5622 5622
5718 5714 5709 5704 5699 5695 5690 5685 5681 5676 5671 5667 5662 5657 5652 5646 5641 5636 5633 5629 5626 5624 5622 5622 5623 5625 5624 5626 5626 5626 5629 5631 5631 5631 5629 5628 5632 5628 5624 5617 5617 5614 5608 5606 5607
5713 5709 5705 5700 5696 5690 5686 5680 5676 5670 5664 5659 5654 5648 5643 5638 5633 5628 5625 5620 5619 5617 5616 5615 5614 5616 5618 5617 5620 5621 5622 5623 5623 5624 5622 5619 5624 5617 5613 5608 5606 5602 5598 5595 5595
5708 5704 5700 5695 5691 5686 5681 5675 5670 5664 5658 5651 5645 5639 5634 5629 5625 5621 5617 5614 5611 5610 5609 5608 5608 5609 5612 5614 5614 5615 5616 5616 5615 5615 5614 5611 5613 5606 5601 5599 5595 5591 5589 5586 5584
5703 5699 5696 5691 5686 5681 5676 5670 5663 5658 5651 5644 5637 5629 5624 5619 5614 5612 5610 5607 5606 5604 5602 5601 5602 5603 5607 5607 5608 5610 5610 5609 5608 5607 5606 5602 5601 5600 5595 5590 5586 5582 5576 5574 5573
5698 5693 5689 5685 5680 5676 5671 5664 5658 5651 5643 5635 5627 5620 5614 5609 5605 5603 5601 5599 5598 5597 5596 5595 5597 5597 5600 5601 5601 5604 5605 5603 5600 5600 5596 5597 5591 5591 5583 5580 5576 5570 5565 5562 5559
5692 5688 5684 5681 5676 5671 5666 5660 5652 5645 5638 5628 5618 5609 5601 5598 5596 5595 5594 5592 5592 5591 5591 5590 5592 5593 5596 5595 5596 5597 5597 5596 5594 5592 5589 5586 5584 5580 5573 5567 5560 5551 5545 5543 5543
5689 5684 5679 5676 5672 5667 5661 5654 5647 5639 5631 5620 5611 5602 5594 5590 5588 5588 5588 5587 5587 5586 5585 5586 5587 5589 5592 5590 5590 5592 5591 5589 5586 5584 5581 5578 5575 5569 5563 5555 5546 5536 5529 5525 5527